Temperature
17 17 17 17 17 17 17 16 16 16 15 15 15 15 15 15 15 15 15 15 15 15 15 15 15 14 14 14 14 14 14 14 14 14 13 13 13 13
17 17 17 17 17 16 16 16 16 16 15 15 15 15 15 15 15 15 14 14 15 14 14 14 14 14 14 14 14 14 13 13 13 13 13 13 13 13
16 16 16 16 16 16 16 16 16 16 15 15 15 15 14 14 14 14 14 14 14 14 14 14 14 13 13 13 13 13 13 13 13 13 13 12 12 12
16 16 16 16 16 16 16 16 16 15 15 15 15 14 14 14 14 14 14 14 13 13 13 13 13 13 13 13 13 12 12 12 12 12 12 12 12 12
16 16 16 16 16 16 15 15 15 15 15 15 14 14 14 14 14 13 13 13 13 13 13 13 13 13 13 12 12 12 12 12 12 12 12 12 11 11
16 16 16 16 15 15 15 15 15 15 15 14 14 14 14 13 13 13 13 13 13 13 12 12 12 12 12 12 12 12 12 11 11 11 11 11 11 11
15 15 15 15 15 15 15 15 15 15 14 14 14 14 13 13 13 13 13 13 12 12 12 12 12 12 12 12 12 12 11 11 11 11 11 11 11 11
15 15 15 15 15 15 14 14 14 14 14 14 14 13 13 13 13 13 13 12 12 12 12 12 12 12 11 11 11 11 11 11 11 11 11 10 10 10
15 14 14 14 14 14 14 14 14 13 13 13 13 13 13 13 13 13 12 12 12 12 12 12 11 11 11 11 11 11 11 11 10 10 10 10 10 10
14 14 14 14 14 14 14 13 13 13 13 13 13 13 13 13 12 12 12 12 12 12 11 11 11 11 11 11 11 11 10 10 10 10 10 10 10 9
14 14 14 14 14 13 13 13 13 13 13 13 13 13 12 12 12 12 12 12 12 11 11 11 11 11 11 11 11 10 10 10 10 10 9 9 9 9
14 14 14 13 13 13 13 13 13 13 13 12 12 12 12 12 12 12 12 12 12 11 11 11 11 11 10 11 10 10 10 10 10 9 9 9 9 9
14 14 14 13 13 13 13 13 13 13 12 12 12 12 12 12 12 12 12 12 12 11 11 11 11 11 11 10 10 10 10 10 10 10 9 9 9 9
14 13 13 13 13 13 13 13 12 12 12 12 12 12 12 12 12 12 11 11 11 11 11 11 11 11 11 10 10 10 10 10 9 9 9 9 9 9
14 13 13 13 13 13 12 12 12 12 12 12 12 12 12 12 12 12 11 11 11 11 11 11 11 11 10 10 10 10 10 10 9 9 9 9 9 9
13 13 13 13 13 12 12 12 12 12 12 12 12 12 12 12 11 11 11 11 11 11 11 11 10 10 10 10 10 10 10 9 9 9 9 9 9 8
13 13 13 12 12 12 12 12 12 12 12 12 12 12 12 11 11 11 11 11 11 11 11 11 10 10 10 10 10 10 10 10 9 9 9 9 9 8
12 12 12 12 12 12 12 12 12 12 12 11 11 11 11 11 11 11 11 11 11 11 11 10 10 10 10 10 9 10 9 9 9 9 9 9 9 8
12 12 12 12 12 12 11 11 11 11 11 11 11 11 11 11 11 11 11 11 11 11 10 10 10 10 9 9 9 9 9 9 9 9 9 9 8 8
12 12 12 11 11 11 11 11 11 11 11 11 11 11 11 11 11 11 11 11 11 10 10 10 10 10 10 10 10 10 9 9 9 9 9 9 8 8
11 11 11 11 11 11 11 11 11 11 11 11 11 11 11 11 11 10 10 10 10 10 10 10 10 10 9 9 9 9 9 9 9 9 9 9 8 8
11 11 11 11 11 11 11 11 10 11 10 10 11 10 10 10 10 10 10 10 10 10 10 10 10 9 9 9 9 9 9 9 9 9 9 8 8 8
11 11 11 11 11 10 10 10 10 10 10 10 10 10 10 10 10 10 10 10 10 9 9 9 9 9 9 9 9 9 9 9 9 8 8 8 8 8
Wind_Speed
2 2 1 1 1 2 3 4 4 2 2 2 1 1 1 2 2 2 2 2 3 4 4 5 5 5 5 5 4 4 4 4 4 4 4 4 3 4
1 1 1 1 0 0 1 2 3 4 2 2 1 0 1 2 3 3 2 2 3 4 5 5 5 6 5 5 6 6 5 5 5 5 4 4 3 4
1 1 0 0 0 0 1 2 2 3 2 1 0 0 1 2 2 3 2 2 3 4 5 5 6 5 6 6 6 6 6 5 5 5 5 4 4 4
0 1 0 1 1 1 1 1 2 2 3 3 1 0 1 1 2 2 2 2 2 4 5 6 6 6 6 6 6 6 6 5 5 5 5 5 5 5
1 1 1 2 1 1 1 1 1 2 2 3 2 1 1 1 2 1 1 1 2 3 4 4 5 6 6 7 7 6 6 6 6 5 5 5 5 5
1 1 1 2 2 2 2 2 2 3 3 3 2 1 1 1 2 1 1 1 1 2 3 3 4 5 5 6 6 6 6 6 6 5 5 5 5 5
2 1 1 2 3 2 2 2 3 3 3 3 2 1 1 1 1 1 1 0 1 0 1 1 2 2 3 4 5 5 6 6 6 6 6 5 5 5
2 1 1 2 2 3 3 4 5 4 4 3 2 3 2 2 2 2 2 1 1 1 1 0 1 1 2 4 5 6 6 6 6 6 6 6 5 5
3 2 2 1 2 1 2 2 1 3 5 5 5 5 4 4 4 3 3 3 3 2 2 1 1 2 2 4 6 7 7 7 7 7 6 5 5 5
3 4 4 2 2 3 3 1 0 1 3 4 5 5 5 5 6 5 5 2 0 1 3 2 1 2 2 3 6 7 8 8 8 7 6 5 5 4
2 3 4 3 4 4 3 2 1 2 2 3 5 6 6 6 6 4 3 3 1 2 2 3 2 1 1 2 5 7 8 8 8 8 7 6 5 5
2 3 5 5 5 5 4 4 3 3 1 0 1 2 3 4 6 6 6 5 2 2 2 3 2 2 0 2 2 4 5 7 8 8 8 8 6 5
3 3 4 7 7 7 6 5 6 5 3 2 2 2 1 2 3 4 5 6 4 3 4 4 2 2 2 1 1 2 4 4 5 6 8 8 8 7
4 4 4 7 7 6 5 6 6 4 2 2 2 3 3 3 4 4 6 6 6 5 6 5 3 4 3 2 2 1 2 4 5 4 5 6 7 7
5 6 6 7 6 5 6 7 5 3 3 3 4 5 4 4 3 2 2 3 3 4 5 6 4 4 4 4 3 2 2 2 4 4 4 5 5 5
3 4 6 6 5 4 4 4 4 4 5 5 5 4 3 3 3 3 3 3 2 2 2 5 6 6 4 3 4 3 3 3 4 5 4 4 5 7
3 1 1 1 2 2 3 3 3 3 4 4 4 4 3 4 4 3 3 3 3 3 3 2 2 4 5 4 3 4 4 3 4 5 4 4 4 6
4 3 3 4 5 5 5 5 4 5 5 5 5 5 5 5 4 3 3 4 4 4 4 3 2 0 1 2 5 5 4 4 4 4 4 4 5 5
4 4 4 5 5 5 5 5 5 6 5 5 5 5 5 5 4 4 4 4 4 5 4 4 4 4 4 5 4 6 6 4 3 4 4 5 5 5
4 4 5 5 4 5 5 5 5 4 4 5 5 5 5 5 5 5 5 5 5 4 4 4 5 6 7 7 4 3 7 6 5 5 5 4 3 3
4 4 4 4 4 4 4 4 4 4 4 4 4 5 5 5 5 5 5 7 5 4 6 6 7 7 4 2 1 2 3 7 8 6 5 3 2 1
4 4 4 4 4 4 4 3 3 3 4 4 4 4 4 4 5 6 6 6 6 6 7 5 3 3 3 4 5 5 4 3 4 7 8 9 6 6
5 5 4 4 4 3 3 3 4 4 4 4 4 4 4 4 4 5 5 5 5 5 4 3 2 2 3 4 5 4 4 4 2 2 3 6 9 9
Wind_Direction
228 218 208 223 208 193 177 171 167 192 243 243 238 288 156 134 145 140 154 154 158 161 164 164 163 159 159 162 162 160 153 152 151 147 144 148 157 165
219 166 231 256 263 209 167 165 169 173 197 228 207 221 117 104 103 115 124 116 141 153 159 160 155 152 150 145 142 142 146 151 152 147 140 140 142 147
286 152 239 210 142 255 122 126 136 144 165 230 188 100 86 83 83 97 99 105 120 134 147 154 155 151 146 143 142 142 142 142 143 143 144 144 143 138
238 110 244 103 78 63 100 113 135 143 149 159 187 128 101 139 116 109 95 92 125 124 138 147 152 150 146 142 138 137 138 137 137 139 143 147 147 144
155 137 152 116 103 99 107 113 123 122 129 144 165 157 88 78 74 65 85 70 112 124 129 138 145 147 145 145 143 142 143 145 145 146 145 143 144 148
137 125 118 133 149 138 127 133 126 114 116 126 128 116 110 77 90 83 41 21 59 105 110 120 137 149 156 157 160 159 157 153 148 146 148 151 151 150
115 117 119 128 141 154 151 151 139 132 130 132 139 123 122 122 183 186 147 69 4 86 104 120 127 140 170 177 176 175 171 165 161 158 156 156 155 154
159 168 146 120 140 142 149 162 164 160 165 161 169 175 203 201 187 174 159 137 258 266 135 205 158 186 209 198 190 180 177 175 172 165 159 157 159 159
179 180 182 158 148 145 141 136 173 191 183 175 183 198 197 201 184 183 188 183 201 204 149 216 205 220 230 211 200 193 190 184 178 172 165 162 167 173
187 182 174 184 197 172 154 143 224 251 215 194 196 206 205 200 193 190 189 176 178 190 153 180 216 225 230 225 215 204 201 198 191 187 186 182 182 186
213 196 184 187 202 174 153 167 207 286 273 211 208 214 215 204 184 152 143 140 191 251 195 165 191 200 229 242 228 214 210 207 203 201 200 196 193 192
236 219 200 195 199 183 176 183 205 239 241 296 265 247 234 218 195 180 174 169 173 226 221 165 177 145 216 265 229 218 215 217 211 209 206 204 199 188
227 236 229 207 204 201 194 202 219 218 212 210 227 248 251 233 217 200 188 178 178 213 206 162 169 164 168 216 275 224 202 207 208 213 216 215 207 192
223 230 228 216 212 213 216 227 221 205 190 197 213 228 230 232 231 215 208 206 203 204 192 167 166 172 161 170 233 246 218 207 196 199 207 212 213 215
223 221 223 225 222 227 232 226 212 199 195 209 223 232 230 225 217 215 217 209 217 224 206 191 173 169 165 183 191 196 209 227 203 197 199 201 207 205
233 227 222 222 220 228 241 239 226 215 208 217 224 231 223 211 208 198 198 193 198 272 255 207 190 174 183 193 185 202 199 200 205 205 202 209 218 216
208 201 192 197 223 240 244 240 233 225 227 231 229 230 225 217 221 206 190 179 192 220 243 259 215 196 191 184 193 211 210 215 209 194 190 211 230 226
174 200 217 218 222 228 234 240 234 231 233 230 226 221 221 217 216 207 193 194 206 216 219 217 195 140 329 274 215 204 210 217 214 191 182 198 230 235
195 215 221 228 233 232 232 234 238 236 228 224 227 224 222 216 206 208 206 206 215 221 223 208 190 187 215 246 260 212 201 211 200 196 197 197 218 230
222 224 229 233 234 234 235 238 241 241 233 228 228 225 218 211 208 211 210 210 215 221 229 219 208 206 214 226 231 239 209 196 197 205 209 210 232 249
232 236 238 238 242 240 238 240 239 236 237 229 223 219 216 210 213 215 215 214 214 218 224 231 231 216 210 167 207 260 246 215 203 196 190 182 199 215
230 234 239 237 232 231 232 233 238 240 237 235 232 228 223 212 211 214 214 213 219 222 229 236 224 186 184 203 224 237 247 260 236 217 195 182 179 196
232 230 229 226 228 229 229 231 234 242 238 235 234 232 225 222 222 219 219 217 217 220 220 230 224 201 209 212 220 231 232 234 238 226 241 229 217 217
Height
1529 1529 1529 1529 1529 1529 1529 1530 1530 1529 1529 1528 1529 1528 1528 1528 1527 1527 1526 1525 1524 1524 1523 1523 1523 1524 1524 1525 1526 1527 1527 1528 1529 1529 1530 1531 1532 1533
1527 1527 1527 1527 1527 1527 1527 1527 1527 1527 1526 1526 1526 1526 1526 1526 1525 1525 1524 1523 1523 1522 1522 1522 1522 1522 1522 1523 1523 1524 1525 1526 1526 1527 1528 1528 1529 1530
1525 1525 1525 1525 1525 1525 1525 1524 1524 1524 1524 1524 1524 1524 1524 1524 1523 1523 1522 1521 1521 1520 1520 1520 1520 1521 1521 1521 1522 1522 1523 1524 1524 1525 1525 1526 1527 1527
1523 1523 1523 1523 1523 1523 1522 1522 1522 1522 1522 1521 1522 1522 1522 1522 1521 1521 1520 1520 1519 1519 1519 1519 1519 1519 1520 1520 1521 1521 1522 1522 1523 1523 1523 1524 1524 1525
1521 1521 1521 1521 1521 1521 1520 1520 1520 1520 1520 1520 1520 1520 1520 1520 1520 1519 1519 1518 1518 1518 1518 1518 1518 1518 1518 1519 1519 1520 1520 1521 1521 1521 1521 1522 1522 1522
1519 1519 1519 1519 1519 1518 1518 1518 1518 1518 1518 1518 1518 1518 1518 1518 1518 1518 1518 1517 1517 1517 1517 1517 1517 1517 1517 1518 1518 1518 1519 1519 1519 1519 1519 1520 1520 1520
1517 1517 1517 1516 1516 1516 1516 1516 1516 1516 1516 1516 1516 1516 1516 1516 1516 1516 1516 1516 1516 1517 1516 1516 1517 1517 1516 1516 1517 1517 1517 1517 1517 1517 1518 1518 1518 1518
1514 1514 1514 1514 1514 1514 1514 1514 1515 1514 1514 1514 1514 1514 1514 1515 1515 1515 1515 1514 1514 1516 1515 1516 1516 1516 1516 1516 1516 1516 1516 1516 1516 1516 1516 1516 1516 1516
1512 1512 1512 1512 1512 1512 1512 1512 1512 1512 1513 1513 1512 1512 1512 1513 1513 1513 1513 1513 1513 1513 1514 1514 1514 1514 1514 1514 1515 1515 1515 1514 1514 1514 1514 1514 1514 1515
1510 1509 1509 1509 1510 1510 1510 1510 1510 1510 1510 1510 1510 1511 1511 1511 1511 1511 1511 1511 1512 1512 1512 1512 1512 1513 1513 1513 1513 1513 1513 1513 1513 1513 1513 1513 1513 1513
1507 1507 1507 1507 1508 1508 1508 1507 1507 1508 1508 1508 1508 1508 1508 1509 1509 1509 1509 1509 1509 1509 1510 1510 1510 1510 1511 1511 1511 1511 1511 1511 1511 1511 1511 1511 1512 1512
1504 1504 1505 1505 1505 1505 1505 1505 1505 1505 1505 1505 1506 1506 1506 1506 1506 1506 1507 1507 1507 1507 1508 1508 1508 1508 1508 1509 1509 1509 1509 1509 1509 1509 1509 1510 1510 1510
1501 1501 1501 1501 1502 1502 1502 1501 1502 1502 1503 1503 1503 1503 1503 1504 1504 1504 1505 1505 1505 1505 1505 1505 1505 1505 1506 1506 1506 1507 1507 1507 1507 1507 1507 1507 1507 1507
1497 1497 1498 1498 1498 1498 1498 1498 1499 1499 1499 1499 1499 1500 1500 1501 1501 1502 1502 1502 1503 1503 1503 1503 1503 1503 1503 1503 1503 1504 1504 1504 1504 1504 1505 1505 1505 1505
1494 1494 1494 1494 1494 1494 1495 1495 1495 1495 1495 1495 1495 1496 1497 1497 1498 1499 1499 1499 1499 1500 1500 1500 1500 1500 1500 1500 1500 1500 1501 1501 1502 1502 1502 1502 1502 1502
1490 1490 1490 1490 1490 1490 1490 1491 1491 1491 1491 1491 1491 1492 1492 1493 1494 1494 1495 1495 1495 1496 1497 1497 1497 1498 1497 1497 1498 1497 1498 1498 1499 1499 1499 1499 1499 1499
1486 1486 1485 1485 1485 1485 1485 1486 1486 1487 1487 1487 1487 1487 1487 1488 1489 1490 1491 1491 1491 1491 1492 1493 1494 1494 1494 1494 1494 1494 1495 1495 1496 1496 1496 1496 1496 1496
1482 1481 1480 1480 1480 1480 1481 1481 1482 1482 1482 1483 1482 1482 1483 1484 1485 1486 1487 1487 1487 1487 1488 1489 1490 1490 1490 1490 1491 1490 1491 1491 1492 1492 1492 1492 1492 1493
1477 1476 1476 1476 1476 1476 1476 1476 1476 1477 1477 1477 1477 1477 1478 1479 1480 1481 1482 1482 1483 1483 1484 1485 1485 1486 1485 1485 1485 1487 1487 1487 1488 1488 1488 1488 1488 1489
1473 1472 1472 1472 1472 1472 1472 1471 1471 1472 1472 1472 1472 1472 1473 1474 1475 1476 1477 1477 1478 1478 1479 1480 1480 1481 1481 1481 1481 1482 1484 1484 1484 1484 1484 1484 1485 1486
1469 1469 1468 1468 1468 1468 1467 1467 1466 1466 1466 1466 1467 1467 1467 1468 1470 1471 1471 1472 1473 1473 1474 1474 1475 1477 1477 1478 1478 1477 1479 1480 1480 1480 1480 1480 1481 1481
1465 1465 1465 1465 1464 1464 1463 1462 1462 1461 1461 1461 1462 1462 1463 1463 1464 1465 1466 1466 1467 1468 1469 1470 1471 1472 1472 1472 1472 1473 1474 1475 1476 1476 1476 1477 1476 1476
1462 1461 1461 1460 1460 1459 1459 1458 1457 1456 1456 1456 1457 1457 1457 1458 1459 1460 1460 1461 1462 1463 1464 1465 1466 1466 1467 1467 1468 1468 1469 1470 1470 1471 1471 1472 1473 1474